Tracking 27107 objects as of 20-Mar-2023
HD Live streaming from Space Station
objects crossing your sky now

SL-16 DEB

Track SL-16 DEB now!
10-day predictions


NORAD ID: 22294
Int'l Code: 1992-093J
Perigee: 794.2 km
Apogee: 937.0 km
Inclination: 71.1 °
Period: 102.1 minutes
Semi major axis: 7236 km
RCS: 0.5245 m2 (medium)
Launch date: December 25, 1992
Source: Commonwealth of Independent States (former USSR) (CIS)
Launch site: TYURATAM MISSILE AND SPACE COMPLEX (TTMTR)

Note: This is SATELLITE DEBRIS
Your satellite tracking list
Your tracking list is empty




NASA's NSSDC Master Catalog

Two Line Element Set (TLE):
1 22294U 92093J   23079.15994823  .00000256  00000-0  16299-3 0  9997
2 22294  71.0628 345.9471 0098709 160.0699 306.8834 14.10269531556181
Source of the keplerian elements: AFSPC